Delta Virtual Airport Information Service

Shanghai Pudong International Airport

ICAO: ZSPD Country: China
Latitude: 31.1434 Longitude: 121.805
Latest Arrival : FDX632372 (RJBB-ZSPD) Latest Departure : DAL186 (1) (ZSPD-KATL)


WX CaptureLIVE
Data provided by noaa.gov | Fetched at 00:51:56

METAR : ZSPD 270630Z 02004MPS 360V060 8000 SCT033 10/02 Q1022 NOSIG

TAF : ZSPD 270302Z 2706/2806 03004MPS 5000 BR BKN015 TX11/2706Z TN04/2721Z BECMG 2800/2801 33006MPS


Runway Data for ZSPD
Data provided by openaviationdata.com

Runway ID Mag Var Hdg Length Elevation Surface ILS Freq ILS Id ILS Slope
16 -5 167° 12467 ft 10 ft Concrete -- -- --
17 -5 167° 13150 ft 10 ft Concrete 110.7 IPD 3
34 -5 347° 12467 ft 10 ft Concrete -- -- --
35 -5 347° 13150 ft 10 ft Concrete 111.9 INN 3

Shanghai Pudong International Airport, China
Use only for reference purposes



Not for navigational purposes.